Regional Weather Roundup
Issued by NWS

Home | Current Version | Previous Version | Graphics & Text | Print | Product List | Glossary Off
Versions: 1 2 3 4 5 6 7 8 9 10 11 12 13 14 15 16 17 18 19 20 21 22 23 24 25 26 27 28 29 30 31 32 33 34 35 36 37 38 39 40 41 42 43 44 45 46 47 48 49 50

000
ASUS43 KDMX 180201
RWRIA

WEATHER ROUNDUP FOR IOWA
NATIONAL WEATHER SERVICE DES MOINES IA
900 PM CDT THU AUG 17 2017

NOTE: "FAIR" INDICATES FEW OR NO CLOUDS BELOW 12,000 FEET WITH NO
SIGNIFICANT WEATHER AND/OR OBSTRUCTIONS TO VISIBILITY.

* - THESE STATIONS ARE NOT NWS STATIONS...THUS NOT UNDER NWS
QUALITY CONTROL.  THEY ALSO DO NOT REPORT WEATHER SUCH
AS PRECIPITATION OR FOG.

IAZ001>003-012>014-020>022-031>034-043>046-180300-
   NORTHWEST IOWA

CITY           SKY/WX    TMP DP  RH WIND       PRES   REMARKS
CARROLL *      PTCLDY    66  63  88 W8        29.89S
CHEROKEE *     CLEAR     67  62  86 CALM      29.90R
DENISON *      CLEAR     66  63  88 CALM      29.92S
LE MARS *      CLEAR     68  66  94 CALM      29.89S
ORANGE CITY *  CLEAR     70  66  88 CALM      29.91R
SHELDON *      CLEAR     63  63 100 CALM      29.89R
SIOUX CITY     CLEAR     70  63  78 CALM      29.89S
SPENCER        CLEAR     67  63  87 W7        29.89S
STORM LAKE *   CLEAR     66  63  88 W7        29.91R
$$

IAZ055>058-069>071-079>083-090>094-180300-
   SOUTHWEST IOWA

CITY           SKY/WX    TMP DP  RH WIND       PRES   REMARKS
ATLANTIC *     CLEAR     66  64  94 S3        29.91S
AUDUBON *      CLEAR     66  63  88 CALM      29.92R
CLARINDA *       N/A     64  63  94 CALM      29.93S
COUNCIL BLFS * CLEAR     75  61  60 NW3       29.91S
CRESTON *      CLEAR     68  61  77 W6        29.93R
HARLAN  *      CLEAR     66  64  94 S5        29.94S
LAMONI         CLEAR     67  60  78 W7        29.91R
RED OAK *      PTCLDY    68  63  83 CALM      29.91S
SHENANDOAH *   CLEAR     68  64  88 CALM      29.92S
$$

IAZ047>049-059>061-072>074-084-180300-
   CENTRAL IOWA

CITY           SKY/WX    TMP DP  RH WIND       PRES   REMARKS
AMES           CLEAR     67  65  93 W7        29.86S
ANKENY *       CLEAR     72  63  73 W6        29.88R
BOONE *        CLEAR     72  63  73 W7        29.87R
CHARITON *     CLEAR     70  59  68 NW6       29.89R
DES MOINES     CLEAR     74  59  59 W8        29.87R
GRINNELL*      CLEAR     68  62  82 W5        29.87S
KNOXVILLE *    CLEAR     70  59  68 W7        29.86S
MARSHALLTOWN   PTCLDY    68  65  90 W6        29.85R
NEWTON *       CLEAR     70  63  78 W6        29.86S
PELLA *        CLEAR     70  61  72 NW5       29.87S
PERRY *          N/A     67  64  90 W7        29.89R
$$

IAZ004>006-015-016-023>025-035-036-180300-
   NORTH CENTRAL IOWA

CITY           SKY/WX    TMP DP  RH WIND       PRES   REMARKS
ALGONA *       CLEAR     66  66 100 CALM      29.89R
CLARION *      CLEAR     66  64  94 NW5       29.88R
ESTHERVILLE    CLEAR     63  62  97 NW3       29.88R
FORT DODGE *   CLEAR     70  61  73 CALM      29.88S
MASON CITY     CLEAR     64  60  87 W8        29.87S
FOREST CITY *    N/A     64  63  94 W6        29.87R
WEBSTER CITY * PTCLDY    66  64  94 NW6       29.86R
IOWA FALLS *     N/A     67  64  91 W5        29.88R
$$

IAZ007>011-017>019-026>030-037>042-050>054-066-180300-
   NORTHEAST IOWA

CITY           SKY/WX    TMP DP  RH WIND       PRES   REMARKS
CEDAR RAPIDS   CLOUDY    70  64  81 W9        29.83S
CHARLES CITY * MOCLDY    68  64  88 W9        29.85R
CLINTON *      CLOUDY    72  66  81 W10       29.82R
DECORAH *      CLOUDY    68  64  88 NW8G20    29.80R
DUBUQUE        MOCLDY    69  63  81 W13       29.81R
MONTICELLO *   CLEAR     68  64  88 W6        29.82R
OELWEIN *      CLEAR     68  64  88 NW10      29.84R
WATERLOO       PTCLDY    71  61  70 W10       29.82S
$$

IAZ064-065-067-068-078-180300-
   EAST CENTRAL IOWA

CITY           SKY/WX    TMP DP  RH WIND       PRES   REMARKS
DAVENPORT      CLOUDY    73  64  73 W10       29.84R
IOWA CITY      CLEAR     73  63  70 W8        29.85R
MUSCATINE *    PTCLDY    72  64  78 W6        29.85R
QUAD CITIES    CLOUDY    76  64  66 W10       29.82R
$$

IAZ062-063-075>077-085>089-095>099-180300-
   SOUTHEAST IOWA

CITY           SKY/WX    TMP DP  RH WIND       PRES   REMARKS
BURLINGTON     CLEAR     73  63  70 NW3       29.85R
FAIRFIELD *    PTCLDY    70  63  78 NW5       29.86R
FORT MADISON * CLEAR     70  64  83 CALM      29.87R
KEOKUK *       PTCLDY    75  61  60 NW3       29.85R
OSKALOOSA *      N/A     67  63  85 NW5       29.87R
OTTUMWA        CLEAR     70  62  76 NW6       29.86R
WASHINGTON *   PTCLDY    70  64  83 NW7       29.87R
$$

ABBREVIATIONS USED IN REMARKS
   TC - TEMPERATURES IN CELSIUS
  WCI - WIND CHILL INDEX
   HX - HEAT INDEX
  VSB - VISIBILITY
$$




USA.gov is the U.S. government's official web portal to all federal, state and local government web resources and services.